Location: Aucun
(42.9667°N, 0.1667°W)
Time: 06:42:03
(UTC+00:00)

CZ-4C R/B - Pass Details

Date: 17 February 2020
Orbit: 641 x 1361 km, 63.4° (Epoch: 09 April)

Event Time Altitude Azimuth Distance (km) Brightness Sun altitude
Exits shadow 03:29:41 24° 29° (NNE) 1,713 4.1 -38.0°
Drops below altitude 10° 03:32:01 10° 33° (NNE) 2,585 5.2 -37.6°
Sets 03:34:48 0° 36° (NE) 3,650 6.2 -37.1°
